www.pogodaiklimat.ru

Погода и климат >> Архив погоды >> Казахстан >> Жанауштоган


АРХИВ ПОГОДЫ в Жанауштогане

Время (UTC), дата Ветер
(напр.,м/с)
 
Видим.   Явления Облачность Т
(С)
Тd
(С)
f
(%)
Тe
(С)
Тes
(С)
Комфортность P
(гПа)
Po
(гПа)
Тmin
(С)
Tmax
(С)
R
(мм)
R24
(мм)
S
(см)
12 13.06 СВ 7 20 км пыльный позёмок 8/8 600 м
[Cb calv]
+38.4 +2.9 11 +35 +36 очень
жарко
1009.1 1010.2
15 13.06 С 8 20 км пыльный позёмок 3/0
[Ac trans]
+31.4 +2.1 15 +29 +29 жарко 1010.6 1011.7 +40.0
18 13.06 С 8 20 км пыльный позёмок 3/0
[Ac trans]
+23.9 +6.2 32 +24 +24 комфорт 1013.9 1015.1 +40.0
21 13.06 В 4 20 км пыльная буря на расстоянии {метель} ясно +19.1 +5.1 40 +19 +19 1016.7 1017.9
00 14.06 С 3 20 км {метель} ясно +15.4 +5.6 52 +15 +15 1017.6 1018.8
03 14.06 С 2 20 км ясно +14.0 +4.8 54 +14 +16 1018.2 1019.4
06 14.06 СВ 6 20 км 3/0
[Ci sp]
+20.1 +6.1 40 +21 +25 комфорт 1018.6 1019.8 +13.9
09 14.06 СВ 6 20 км 6/0
[Ci sp]
+23.3 +3.6 28 +23 +29 комфорт 1018.6 1019.8
12 14.06 СВ 4 20 км 6/0
[Ci sp]
+25.0 +1.7 22 +24 +30 комфорт 1017.5 1018.7
15 14.06 СВ 2 20 км 4/0
[Ci sp]
+25.2 +1.1 21 +24 +25 комфорт 1016.2 1017.4 +26.4
18 14.06 СВ 1 20 км 3/0
[Ci sp]
+19.9 +5.3 38 +22 +22 комфорт 1016.2 1017.4 +26.4
21 14.06 штиль 0 20 км ясно +15.0 +3.0 44 +15 +15 1015.6 1016.8
00 15.06 штиль 0 20 км ясно +12.2 +2.3 51 +12 +12 1015.6 1016.8
03 15.06 штиль 0 20 км 4/0
[Ci sp]
+14.2 +1.9 43 +14 +17 1014.8 1016.0
06 15.06 Ю 2 20 км 3/0
[Ci sp]
+25.6 +3.8 24 +25 +37 комфорт 1013.2 1014.3 +12.1
09 15.06 ЮЗ 2 20 км 4/0
[Ac trans Ci sp]
+28.4 +5.3 23 +27 +42 жарко 1012.3 1013.4
12 15.06 З 3 20 км 6/0
[Ac trans Ci sp]
+31.2 +4.0 18 +29 +35 жарко 1010.7 1011.8
15 15.06 З 3 20 км 6/0
[Ac trans]
+31.8 +4.1 17 +29 +30 жарко 1009.0 1010.1 +32.7
18 15.06 штиль 0 20 км 3/0
[Ac trans]
+25.4 +2.5 23 +24 +24 комфорт 1009.0 1010.1 +32.7
21 15.06 штиль 0 20 км 3/0
[Ac trans]
+21.5 +2.7 29 +21 +21 комфорт 1009.5 1010.7
00 16.06 штиль 0 20 км 4/0
[Ac trans]
+19.1 +2.1 32 +19 +19 1008.9 1010.1
03 16.06 штиль 0 20 км 8/0
[Ac trans]
+18.2 +0.2 30 +18 +20 1009.1 1010.3
06 16.06 СВ 2 20 км 8/3 600 м
[Cb calv Ac trans]
+23.5 +7.8 37 +24 +29 комфорт 1010.3 1011.4 +18.1
09 16.06 штиль 0 4000 м слаб. ливневой дождь 8/8 600 м
[Cb calv]
+24.5 +10.0 40 +25 +30 комфорт 1010.7 1011.8
12 16.06 штиль 0 50 км {ливн. осадки} ?/? +29.4 +7.4 25 +28 +28 жарко 1009.2 1010.3
15 16.06 С 2 20 км 4/0
[Ac trans Ci sp]
+30.0 +6.4 23 +29 +30 жарко 1007.9 1009.0 +31.4
18 16.06 С 1 20 км 8/4 600 м
[Cb calv Ac trans]
+26.4 +6.7 29 +26 +26 жарко 1008.6 1009.7 +31.4 0.0
21 16.06 штиль 0 20 км {ливн. осадки} 8/8 600 м
[Cb calv]
+20.8 +7.1 41 +22 +22 комфорт 1009.0 1010.2
00 17.06 штиль 0 20 км {ливн. осадки} 6/6 600 м
[Cb calv]
+18.9 +9.7 55 +19 +19 1008.2 1009.4
03 17.06 штиль 0 4000 м слаб. ливневой дождь 8/8 600 м
[Cb calv]
+18.4 +11.7 65 +19 +19 1009.5 1010.7
06 17.06 СВ 1 20 км {ливн. осадки} 9/5 600 м
[Sc Ac trans]
+22.3 +11.7 51 +25 +28 комфорт 1010.0 1011.1 +18.3 2
09 17.06 СВ 1 20 км 8/0
[Ac trans Ci sp]
+27.7 +9.0 31 +28 +43 жарко 1010.0 1011.1
12 17.06 СВ 1 20 км 8/0
[Ci sp]
+30.0 +6.1 22 +29 +39 жарко 1009.6 1010.7
15 17.06 В 1 20 км 9/5
[Frnb Ac trans Ci fib]
+29.8 +6.4 23 +29 +29 жарко 1009.0 1010.1 +31.0
18 17.06 штиль 0 20 км 4/0
[Ac trans Ci sp]
+25.4 +6.4 30 +25 +25 комфорт 1010.3 1011.4 +31.0 0.0
21 17.06 штиль 0 20 км 3/0
[Ci sp]
+22.8 +6.7 35 +23 +23 комфорт 1010.3 1011.4
00 18.06 штиль 0 20 км ясно +20.0 +8.5 47 +21 +21 комфорт 1010.3 1011.6
03 18.06 штиль 0 20 км ясно +20.9 +8.1 44 +22 +25 комфорт 1010.7 1011.9
06 18.06 штиль 0 20 км 3/0
[Ci sp]
+30.0 +9.7 28 +30 +46 жарко 1011.0 1012.1 +19.9
09 18.06 штиль 0 20 км 8/3 1000 м
[Cu med, cong Ci sp]
+33.2 +7.0 20 +31 +46 жарко 1010.0 1011.1
12 18.06 Ю 1 20 км 6/3 1000 м
[Cu med, cong Ac trans]
+33.4 +2.5 14 +30 +37 жарко 1008.7 1009.8
15 18.06 Ю 2 20 км 6/3 1000 м
[Cu med, cong Ac trans]
+34.0 +5.0 16 +31 +32 жарко 1007.6 1008.7 +35.0
18 18.06 штиль 0 20 км 8/3 600 м
[Cb calv Ac trans]
+31.0 +7.1 22 +30 +30 жарко 1007.9 1009.0 +35.0
21 18.06 штиль 0 20 км 4/0
[Ac trans]
+25.4 +5.5 28 +25 +25 комфорт 1009.0 1010.1
00 19.06 штиль 0 20 км 4/0
[Ac trans]
+20.9 +3.2 31 +21 +21 комфорт 1008.9 1010.1
03 19.06 штиль 0 20 км 4/0
[Ac trans]
+20.2 +2.7 31 +20 +23 1009.4 1010.6
06 19.06 С 2 20 км 3/0
[Ac trans]
+30.4 +4.6 20 +29 +39 жарко 1010.0 1011.1 +20.1
09 19.06 штиль 0 20 км 6/0
[Ac trans]
+32.6 +3.8 16 +30 +46 жарко 1009.2 1010.3
12 19.06 СЗ 1 20 км 8/8 1000 м
[Cu med, cong]
+34.0 +2.7 14 +31 +34 жарко 1008.3 1009.4
15 19.06 З 2 20 км 6/6 600 м
[Cb calv]
+32.4 +0.9 13 +29 +30 жарко 1007.9 1009.0 +35.4
18 19.06 штиль 0 20 км 6/6 600 м
[Cb calv]
+29.8 +5.5 22 +28 +28 жарко 1008.8 1009.9 +35.4
21 19.06 штиль 0 20 км 8/8 600 м
[Cb calv]
+25.7 +6.8 30 +26 +26 жарко 1009.2 1010.8
00 20.06 СВ 3 4000 м гроза без осадков {ливн. осадки} 9/9 600 м
[Cb cap]
+24.5 +7.7 34 +25 +25 комфорт 1009.8 1010.9
03 20.06 СВ 2 20 км в посл. час гроза {ливн. осадки} 6/0
[Ac trans]
+22.8 +10.0 44 +25 +26 комфорт 1010.0 1011.1
06 20.06 С 2 20 км {гроза, ливн. осадки} 3/3 600 м
[Cb calv Ac trans]
+27.4 +8.8 31 +27 +36 жарко 1010.3 1011.4 +22.7 5

 

Местоположение метеостанции Жанауштоган (Атырауская область, Казахстан): широта 47.90 долгота 48.80 высота над уровнем моря -10 м.

В архиве по умолчанию представлена погода в Жанауштогане за последнюю неделю. Архивные данные за месяц целиком и за предыдущие месяцы, начиная с января 2011 года, Вы можете получить, выбрав интересующий диапазон дат из раскрывающегося списка и нажав кнопку "Ввод!".


*Определитесь, кто Вы:
робот инопланетянин человек

Внимание! Время в таблицах - всемирное. Для получения местного времени необходимо прибавить поправку, которая равна 5 ч.

Смотрите также архив погоды в соседних городах и на ближайших метеорологических станциях:

Погода в Досанге (Астраханская область, Россия) (127 км)
Погода в Харабали (Астраханская область, Россия) (129 км)
Погода в Урде (Западно-Казахстанская область, Казахстан) (140 км)
Погода в Ганюшкино (Атырауская область, Казахстан) (149 км)
Погода в Исатай (Атырауская область, Казахстан) (155 км)
Погода в Верхнем Баскунчаке (Астраханская область, Россия) (158 км)
Погода в Жангала (Западно-Казахстанская область, Казахстан) (184 км)
Погода в Астрахани (Астраханская область, Россия) (191 км)
Погода в Зеленге (Астраханская область, Россия) (192 км)
Погода в Эльтоне (Волгоградская область, Россия) (198 км)

Пояснения к столбцам:

Ветер - указаны скорость ветра в м/с - средняя за 10 мин, порывы в срок и между сроками (в фигурных скобках) и направление, откуда дует ветер: С - северный, СВ - северо-восточный, В - восточный, ЮВ - юго-восточный, Ю - южный, ЮЗ - юго-западный, З - западный, СЗ - северо-западный.
Видимость - горизонтальная дальность видимости в метрах или километрах. При видимости от 1 до 10 км при отсутствии осадков обычно наблюдается дымка, при ухудшении видимости до 1 км и менее - туман. В сухую погоду видимость может ухудшаться дымом, пылью или мглою.
Явления - указаны атмосферные явления, наблюдавшиеся в срок или в последний час перед сроком; фигурными скобками обозначены явления, наблюдавшиеся между сроками (за 1-3 часа до срока); квадратными скобками обозначены град или гололедные отложения с указанием их диаметра в мм.
Облачность - указаны через наклонную черту общая и нижняя облачность в баллах и высота нижней границы облаков в метрах; квадратными скобками обозначены формы облаков: Ci - перистые, Cs - перисто-слоистые, Cc - перисто-кучевые, Ac - высококучевые, As - высокослоистые, Sc - слоисто-кучевые, Ns - слоисто-дождевые, Cu - кучевые, Cb - кучево-дождевые. Подробнее классификацию облаков см. в Атласе облаков (PDF).
T - Температура воздуха - температура, измеренная на высоте 2 м над землей.
Td - Температура точки росы - температура, при понижении до которой содержащийся в воздухе водяной пар достигнет насыщения.
f - Относительная влажность воздуха - влажноcть воздуха, измеренная на высоте 2 м над землей.
Te - Эффективная температура - температура, которую ощущает одетый по сезону человек в тени. Характеристика душности погоды. При расчете учитывается влияние влажности воздуха и скорости ветра на теплоощущения человека.
Tes - Эффективная температура на солнце - температура, которую ощущает человек, с поправкой на солнечный нагрев. Характеристика знойности погоды. Зависит от высоты солнца над горизонтом, облачности и скорости ветра. Ночью, в пасмурную погоду, а также при ветре 12 м/с и более поправка равна нулю.
P - Атмосферное давление - приведенное к уровню моря атмосферное давление.
Po - Атмосферное давление - измеренное на уровне метеостанции атмосферное давление.
Tmin - Минимальная температура - минимум температуры воздуха на высоте 2 м над землей.
Tmax - Максимальная температура - максимум температуры воздуха на высоте 2 м над землей.
R - Количество осадков - Количество выпавших осадков за период времени, мм. При наведении курсора мыши на число - период времени, за который выпало указанное количество осадков.
R24 - Количество осадков - Количество выпавших осадков за 24 часа, мм.
S - Снежный покров - Высота снежного покрова, см. При наведении курсора мыши на число - состояние снежного покрова и степень покрытия местности в баллах.